Terug naar catalogus

STARLINK-32005

ActiefCommunicatieVLEO
NORAD 60034·PAYLOAD·🇺🇸 United States

Gelanceerd Jun 8, 2024 vanaf Cape Canaveral Space Force Station

Loading…

Volgende Passages (komende 24 uur)

TLE

VersSource: CelesTrak SupGP

Epoch: Sep 15, 2026, 02:01 UTC

1 60034C 24111U   26258.08451389  .00010781  00000+0  31851-3 0  2588
2 60034  53.1570 274.9051 0001186  93.7641 308.0768 15.34387643    17

Volg STARLINK-32005 in realtime met AllMySat

Download on the App Store